TimeEDT,TemperatureF,Dew PointF,Humidity,Sea Level PressureIn,VisibilityMPH,Wind Direction,Wind SpeedMPH,Gust SpeedMPH,PrecipitationIn,Events,Conditions,WindDirDegrees,DateUTC
12:53 AM,78.1,73.0,84,30.08,10.0,Calm,Calm,-,N/A,,Clear,0,2013-05-25 04:53:00
1:53 AM,78.1,73.0,84,30.08,10.0,NNW,6.9,-,N/A,,Mostly Cloudy,340,2013-05-25 05:53:00
2:53 AM,77.0,72.0,84,30.07,10.0,North,5.8,-,N/A,,Clear,10,2013-05-25 06:53:00
3:53 AM,77.0,73.9,90,30.06,10.0,Calm,Calm,-,N/A,,Mostly Cloudy,0,2013-05-25 07:53:00
4:53 AM,77.0,73.0,88,30.06,10.0,North,3.5,-,N/A,,Clear,360,2013-05-25 08:53:00
5:53 AM,75.9,73.0,91,30.07,10.0,North,3.5,-,N/A,,Clear,10,2013-05-25 09:53:00
6:53 AM,75.0,68.0,79,30.09,10.0,North,3.5,-,N/A,,Clear,10,2013-05-25 10:53:00
7:53 AM,79.0,69.1,72,30.10,10.0,North,4.6,-,N/A,,Partly Cloudy,10,2013-05-25 11:53:00
8:53 AM,81.0,70.0,69,30.13,10.0,NE,16.1,-,N/A,,Scattered Clouds,50,2013-05-25 12:53:00
9:53 AM,84.0,68.0,58,30.14,10.0,ENE,17.3,-,N/A,,Scattered Clouds,70,2013-05-25 13:53:00
10:53 AM,84.0,64.9,53,30.17,10.0,ENE,19.6,-,N/A,,Clear,60,2013-05-25 14:53:00
11:53 AM,84.9,63.0,48,30.17,10.0,ENE,17.3,25.3,N/A,,Clear,70,2013-05-25 15:53:00
12:53 PM,86.0,64.0,48,30.18,10.0,East,18.4,26.5,N/A,,Clear,80,2013-05-25 16:53:00
1:53 PM,84.9,63.0,48,30.17,10.0,ENE,15.0,24.2,N/A,,Clear,60,2013-05-25 17:53:00
2:53 PM,84.9,63.0,48,30.16,10.0,ENE,16.1,-,N/A,,Clear,70,2013-05-25 18:53:00
3:53 PM,82.9,64.9,54,30.14,10.0,ENE,13.8,24.2,N/A,,Mostly Cloudy,60,2013-05-25 19:53:00
4:53 PM,82.9,63.0,51,30.13,10.0,NE,16.1,23.0,N/A,,Clear,40,2013-05-25 20:53:00
5:53 PM,82.9,62.1,49,30.13,10.0,NNE,18.4,-,N/A,,Clear,20,2013-05-25 21:53:00
6:53 PM,81.0,64.0,56,30.13,10.0,ENE,18.4,23.0,N/A,,Clear,60,2013-05-25 22:53:00
7:53 PM,80.1,64.0,58,30.13,10.0,ENE,15.0,-,N/A,,Mostly Cloudy,70,2013-05-25 23:53:00
8:53 PM,79.0,64.0,60,30.15,10.0,ENE,13.8,-,N/A,,Overcast,60,2013-05-26 00:53:00
9:53 PM,78.1,64.0,62,30.17,10.0,ENE,16.1,23.0,N/A,,Clear,60,2013-05-26 01:53:00
10:53 PM,78.1,64.9,64,30.18,10.0,NE,9.2,-,N/A,,Partly Cloudy,50,2013-05-26 02:53:00
11:53 PM,77.0,63.0,62,30.18,10.0,NE,8.1,-,N/A,,Clear,50,2013-05-26 03:53:00